Regional Weather Roundup
Issued by NWS

Home | Current Version | Previous Version | Graphics & Text | Print | Product List | Glossary On
Versions: 1 2 3 4 5 6 7 8 9 10 11 12 13 14 15 16 17 18 19 20 21 22 23 24 25 26 27 28 29 30 31 32 33 34 35 36 37 38 39 40 41 42 43 44 45 46 47 48 49 50
000
ASUS43 KBIS 291102
RWRND

NORTH DAKOTA REGIONAL WEATHER ROUNDUP
NATIONAL WEATHER SERVICE BISMARCK ND
600 AM CDT WED JUL 29 2015

NOTE: "FAIR" INDICATES FEW OR NO CLOUDS BELOW 12,000 FEET WITH NO
SIGNIFICANT WEATHER AND/OR OBSTRUCTIONS TO VISIBILITY.


NDZ001>003-009>011-017-291200-
NORTHWEST NORTH DAKOTA

CITY           SKY/WX    TMP DP  RH WIND       PRES   REMARKS
WILLISTON      MOCLDY    58  49  72 W17       29.96R
MINOT          PTCLDY    61  50  67 W20G28    29.83R
MINOT AFB      PTCLDY    61  56  83 W15       29.81R
$$

NDZ018>021-031>035-040>046-291200-
SOUTHWEST NORTH DAKOTA

CITY           SKY/WX    TMP DP  RH WIND       PRES   REMARKS
BISMARCK       PTCLDY    61  47  59 W16       29.95R
DICKINSON      PTCLDY    53  44  71 W13       30.02R
GARRISON         N/A     58  52  80 W14       29.90R
HETTINGER ARPT CLEAR     51  41  68 W10       30.10R
$$

NDZ004>008-012>016-024-026-027-054-291200-
NORTHEAST NORTH DAKOTA

CITY           SKY/WX    TMP DP  RH WIND       PRES   REMARKS
GRAND FORKS    CLOUDY    65  54  67 W24G37    29.61R
DEVILS LAKE    CLOUDY    63  48  59 W29G40    29.70R
$$

NDZ022-023-025-028>030-036>039-047>053-291200-
SOUTHEAST NORTH DAKOTA

CITY           SKY/WX    TMP DP  RH WIND       PRES   REMARKS
FARGO          CLOUDY    65  51  60 SW23G32   29.75R
JAMESTOWN      CLEAR     62  49  62 W22G31    29.84R
$$



USA.gov is the U.S. government's official web portal to all federal, state and local government web resources and services.